Moses Lake, Washington, United States (98837)
Lat: 47.13N, Lon: 119.28W
Wx Zone: WAZ034
Local Info
Past Weather Observations for Today

NOTE: This archive is for the closest National Weather Service station to Moses Lake. Information may differ from the station used for current weather conditions.

Click here for Long-term Archive

Time Weather Temperature Dewpoint Humidity Pressure Winds Precip Visibility
22:52
Overcast
55°F / 13°C 39°F / 4°C 55% 29.65 in
(1004 mb)
SW 19.6 mph
(SW 32 kph)
- 10SM
21:52
Partly Cloudy
57°F / 14°C 43°F / 6°C 59% 29.56 in
(1001 mb)
SW 21.9 mph
(SW 35 kph)
- 10SM
20:52
Clear
59°F / 15°C 45°F / 7°C 59% 29.5 in
(999 mb)
SSE 24.2 mph
(SSE 39 kph)
- 10SM
19:52
Clear
57°F / 14°C 46°F / 8°C 67% 29.47 in
(998 mb)
S 21.9 mph
(S 35 kph)
- 10SM
18:52
Mostly Cloudy
54°F / 12°C 48°F / 9°C 82% 29.47 in
(998 mb)
S 13.8 mph
(S 22 kph)
- 10SM
17:52
Mostly Cloudy
54°F / 12°C 48°F / 9°C 82% 29.47 in
(998 mb)
SSE 11.5 mph
(SSE 19 kph)
- 9SM
16:52
Mostly Cloudy
54°F / 12°C 48°F / 9°C 82% 29.47 in
(998 mb)
SE 10.4 mph
(SE 17 kph)
- 10SM
15:52
Overcast
55°F / 13°C 50°F / 10°C 82% 29.5 in
(999 mb)
Variable 3.5 mph
(Variable 6 kph)
0.01 in
(0.25 mm)
10SM
14:52
Mostly Cloudy
55°F / 13°C 48°F / 9°C 77% 29.5 in
(999 mb)
SE 6.9 mph
(SE 11 kph)
- 10SM
13:52
Partly Cloudy
57°F / 14°C 48°F / 9°C 72% 29.5 in
(999 mb)
Variable 4.6 mph
(Variable 7 kph)
- 10SM
12:52
Partly Cloudy
55°F / 13°C 48°F / 9°C 77% 29.53 in
(1000 mb)
SSW 5.8 mph
(SSW 9 kph)
- 10SM
11:52
Clear
55°F / 13°C 46°F / 8°C 72% 29.56 in
(1001 mb)
SE 4.6 mph
(SE 7 kph)
- 10SM
11:22
Partly Cloudy
55°F / 13°C 46°F / 8°C 72% 29.56 in
(1001 mb)
Variable 3.5 mph
(Variable 6 kph)
- 10SM
10:52
Overcast
54°F / 12°C 46°F / 8°C 77% 29.59 in
(1002 mb)
Calm - 10SM
09:52
Overcast
54°F / 12°C 45°F / 7°C 72% 29.59 in
(1002 mb)
E 4.6 mph
(E 7 kph)
- 10SM
08:52
Mostly Cloudy
52°F / 11°C 45°F / 7°C 77% 29.62 in
(1003 mb)
N 6.9 mph
(N 11 kph)
- 10SM
07:52
Clear
46°F / 8°C 43°F / 6°C 87% 29.65 in
(1004 mb)
NNW 9.2 mph
(NNW 15 kph)
- 10SM
06:52
Clear
46°F / 8°C 43°F / 6°C 87% 29.68 in
(1005 mb)
NNW 9.2 mph
(NNW 15 kph)
- 10SM
06:49
Clear
46°F / 8°C 43°F / 6°C 87% 29.68 in
(1005 mb)
NNW 11.5 mph
(NNW 19 kph)
- 10SM
06:42
Clear
Fog And Mist
46°F / 8°C 43°F / 6°C 87% 29.68 in
(1005 mb)
NNW 10.4 mph
(NNW 17 kph)
- 2SM
05:52
Clear
Fog And Mist
46°F / 8°C 43°F / 6°C 87% 29.68 in
(1005 mb)
N 8.1 mph
(N 13 kph)
- 4SM
04:52
Clear
Fog And Mist
46°F / 8°C 45°F / 7°C 93% 29.71 in
(1006 mb)
N 11.5 mph
(N 19 kph)
0.00 in
(0.00 mm)
4SM
03:52
Clear
Light Rain
48°F / 9°C 45°F / 7°C 87% 29.74 in
(1007 mb)
N 9.2 mph
(N 15 kph)
0.00 in
(0.00 mm)
7SM
02:52
Clear
Light Rain
48°F / 9°C 45°F / 7°C 87% 29.77 in
(1008 mb)
N 11.5 mph
(N 19 kph)
0.00 in
(0.00 mm)
6SM
01:52
Clear
Light Rain
50°F / 10°C 45°F / 7°C 82% 29.8 in
(1009 mb)
N 11.5 mph
(N 19 kph)
0.00 in
(0.00 mm)
10SM
00:52
Clear
Light Rain
48°F / 9°C 45°F / 7°C 87% 29.83 in
(1010 mb)
N 12.7 mph
(N 20 kph)
0.00 in
(0.00 mm)
7SM
Time Weather Temperature Dewpoint Humidity Pressure Winds Precip Visibility


Weather for websites

WeatherForYou.com, LLC is not responsible for any damages or problems caused by this service. Current weather conditions are obtained from the closest station including government and personal stations which may have varying degrees of accuracy. Weather forecasts are derived from the NOAA NDFD. Like all things, this site belongs to Jesus Christ... He just trusts me to maintain it. If you have any questions or comments email webmaster@weatherforyou.com

Copyright © 2014, WeatherForYou.com LLC. All rights reserved.